When you browse on this site, cookies collect data to enhance your experience and personalize the content and advertising you see.
Visit our Privacy Policy to learn more. By continuing to use the site, you agree to this use of cookies and data.

Hourly Weather Suhotinka

Today, 2 July, Thursday

Time Temperature Precipitation Wind Pressure Humidity
00:00 +16°C° 0 mm 2 mps 735 mmHg 90%
01:00 +14°C° 0 mm 3 mps 735 mmHg 92%
02:00 +15°C° 0 mm 2 mps 735 mmHg 93%
03:00 +16°C° 0 mm 2 mps 735 mmHg 92%
04:00 +16°C° 0 mm 2 mps 736 mmHg 92%
05:00 +16°C° 0 mm 2 mps 736 mmHg 91%
06:00 +18°C° 0 mm 2 mps 736 mmHg 86%
07:00 +20°C° 0 mm 2 mps 736 mmHg 81%
08:00 +21°C° 0 mm 2 mps 736 mmHg 76%
09:00 +22°C° 0 mm 3 mps 736 mmHg 73%
10:00 +24°C° 0 mm 3 mps 736 mmHg 70%
11:00 +25°C° 0 mm 4 mps 736 mmHg 68%
12:00 +25°C° 0.1 mm 4 mps 736 mmHg 68%
13:00 +26°C° 0.1 mm 4 mps 736 mmHg 67%
14:00 +26°C° 0.1 mm 4 mps 736 mmHg 67%
15:00 +26°C° 0.1 mm 4 mps 736 mmHg 71%
16:00 +26°C° 0.1 mm 4 mps 736 mmHg 74%
17:00 +25°C° 0.1 mm 3 mps 736 mmHg 78%
18:00 +24°C° 0.2 mm 3 mps 736 mmHg 82%
19:00 +22°C° 0.2 mm 3 mps 736 mmHg 86%
20:00 +20°C° 0.2 mm 3 mps 736 mmHg 90%
21:00 +20°C° 0 mm 3 mps 736 mmHg 91%
22:00 +19°C° 0 mm 3 mps 736 mmHg 93%
23:00 +19°C° 0 mm 3 mps 735 mmHg 94%

Tomorrow, 3 July, Friday

Time Temperature Precipitation Wind Pressure Humidity
00:00 +19°C° 0 mm 3 mps 736 mmHg 95%
01:00 +19°C° 0 mm 3 mps 736 mmHg 95%
02:00 +18°C° 0 mm 3 mps 736 mmHg 95%
03:00 +19°C° 0 mm 3 mps 736 mmHg 95%
04:00 +19°C° 0 mm 3 mps 736 mmHg 95%
05:00 +19°C° 0 mm 3 mps 736 mmHg 94%
06:00 +21°C° 0.2 mm 4 mps 736 mmHg 91%
07:00 +22°C° 0.2 mm 4 mps 737 mmHg 88%
08:00 +23°C° 0.2 mm 4 mps 737 mmHg 85%
09:00 +25°C° 0.8 mm 4 mps 737 mmHg 81%
10:00 +26°C° 0.8 mm 4 mps 737 mmHg 77%
11:00 +27°C° 0.8 mm 4 mps 737 mmHg 74%
12:00 +27°C° 1.1 mm 4 mps 737 mmHg 73%
13:00 +27°C° 1.1 mm 4 mps 737 mmHg 73%
14:00 +27°C° 1.1 mm 3 mps 737 mmHg 73%
15:00 +27°C° 0.7 mm 3 mps 737 mmHg 76%
16:00 +27°C° 0.7 mm 3 mps 737 mmHg 79%
17:00 +26°C° 0.7 mm 2 mps 737 mmHg 83%
18:00 +25°C° 0.5 mm 2 mps 737 mmHg 84%
19:00 +24°C° 0.5 mm 2 mps 737 mmHg 86%
20:00 +23°C° 0.5 mm 2 mps 737 mmHg 87%
21:00 +21°C° 0.4 mm 2 mps 737 mmHg 89%
22:00 +20°C° 0.4 mm 2 mps 737 mmHg 90%
23:00 +20°C° 0.4 mm 3 mps 737 mmHg 92%

Day after tomorrow, 4 July, Saturday

Time Temperature Precipitation Wind Pressure Humidity
00:00 +20°C° 0 mm 3 mps 736 mmHg 92%
01:00 +19°C° 0 mm 3 mps 736 mmHg 92%
02:00 +19°C° 0 mm 3 mps 736 mmHg 93%
03:00 +19°C° 0 mm 3 mps 736 mmHg 92%
04:00 +19°C° 0 mm 3 mps 736 mmHg 92%
05:00 +19°C° 0 mm 3 mps 736 mmHg 92%
06:00 +21°C° 0 mm 3 mps 736 mmHg 88%
07:00 +22°C° 0 mm 3 mps 736 mmHg 84%
08:00 +25°C° 0 mm 3 mps 736 mmHg 81%
09:00 +26°C° 0.1 mm 4 mps 736 mmHg 77%
10:00 +27°C° 0.1 mm 4 mps 736 mmHg 74%
11:00 +27°C° 0.1 mm 4 mps 736 mmHg 70%
12:00 +28°C° 0.7 mm 4 mps 736 mmHg 71%
13:00 +28°C° 0.7 mm 4 mps 736 mmHg 71%
14:00 +28°C° 0.7 mm 4 mps 736 mmHg 72%
15:00 +27°C° 0.5 mm 3 mps 736 mmHg 75%
16:00 +27°C° 0.5 mm 3 mps 736 mmHg 78%
17:00 +26°C° 0.5 mm 2 mps 736 mmHg 80%
18:00 +25°C° 0.3 mm 2 mps 736 mmHg 83%
19:00 +24°C° 0.3 mm 1 mps 736 mmHg 85%
20:00 +22°C° 0.3 mm 1 mps 736 mmHg 88%
21:00 +22°C° 0 mm 1 mps 736 mmHg 88%
22:00 +21°C° 0 mm 1 mps 736 mmHg 89%
23:00 +21°C° 0 mm 1 mps 736 mmHg 90%

5 July, Sunday

Time Temperature Precipitation Wind Pressure Humidity
00:00 +21°C° 0.1 mm 1 mps 736 mmHg 91%
01:00 +21°C° 0.1 mm 1 mps 736 mmHg 91%
02:00 +21°C° 0.1 mm 1 mps 736 mmHg 92%
03:00 +20°C° 1.2 mm 1 mps 736 mmHg 94%
04:00 +20°C° 1.2 mm 1 mps 736 mmHg 96%
05:00 +20°C° 1.2 mm 1 mps 736 mmHg 97%
06:00 +21°C° 0.4 mm 1 mps 736 mmHg 95%
07:00 +19°C° 0.4 mm 0 mps 736 mmHg 92%
08:00 +20°C° 0.4 mm 0 mps 736 mmHg 89%
09:00 +23°C° 0.3 mm 1 mps 736 mmHg 85%
10:00 +24°C° 0.3 mm 1 mps 736 mmHg 80%
11:00 +25°C° 0.3 mm 1 mps 736 mmHg 76%
12:00 +26°C° 0.5 mm 1 mps 736 mmHg 75%
13:00 +26°C° 0.5 mm 1 mps 736 mmHg 74%
14:00 +26°C° 0.5 mm 1 mps 736 mmHg 73%
15:00 +26°C° 1.1 mm 1 mps 735 mmHg 77%
16:00 +26°C° 1.1 mm 1 mps 735 mmHg 80%
17:00 +25°C° 1.1 mm 1 mps 735 mmHg 83%
18:00 +24°C° 0.3 mm 1 mps 735 mmHg 85%
19:00 +23°C° 0.3 mm 1 mps 735 mmHg 86%
20:00 +20°C° 0.3 mm 0 mps 735 mmHg 88%
21:00 +20°C° 0.1 mm 0 mps 735 mmHg 89%
22:00 +21°C° 0.1 mm 1 mps 735 mmHg 90%
23:00 +21°C° 0.1 mm 1 mps 735 mmHg 90%

6 July, Monday

Time Temperature Precipitation Wind Pressure Humidity
00:00 +21°C° 0.1 mm 1 mps 735 mmHg 91%
01:00 +21°C° 0.1 mm 1 mps 734 mmHg 92%
02:00 +20°C° 0.1 mm 1 mps 734 mmHg 93%
03:00 +21°C° 0 mm 1 mps 734 mmHg 93%
04:00 +21°C° 0 mm 1 mps 734 mmHg 93%
05:00 +21°C° 0 mm 1 mps 734 mmHg 93%
06:00 +22°C° 0 mm 1 mps 734 mmHg 89%
07:00 +23°C° 0 mm 1 mps 735 mmHg 84%
08:00 +24°C° 0 mm 2 mps 735 mmHg 80%
09:00 +25°C° 0 mm 2 mps 735 mmHg 77%
10:00 +26°C° 0 mm 2 mps 735 mmHg 73%
11:00 +27°C° 0 mm 2 mps 735 mmHg 70%
12:00 +27°C° 0 mm 2 mps 735 mmHg 68%
13:00 +27°C° 0 mm 3 mps 734 mmHg 67%
14:00 +27°C° 0 mm 3 mps 734 mmHg 65%
15:00 +27°C° 0 mm 3 mps 734 mmHg 68%
16:00 +27°C° 0 mm 3 mps 734 mmHg 70%
17:00 +26°C° 0 mm 2 mps 734 mmHg 73%
18:00 +25°C° 0 mm 2 mps 734 mmHg 75%
19:00 +23°C° 0 mm 2 mps 734 mmHg 76%
20:00 +20°C° 0 mm 2 mps 735 mmHg 78%
21:00 +19°C° 0 mm 2 mps 735 mmHg 80%
22:00 +19°C° 0 mm 2 mps 735 mmHg 82%
23:00 +18°C° 0 mm 2 mps 735 mmHg 84%

7 July, Tuesday

Time Temperature Precipitation Wind Pressure Humidity
00:00 +18°C° 0 mm 2 mps 735 mmHg 86%
01:00 +19°C° 0 mm 1 mps 735 mmHg 88%
02:00 +19°C° 0 mm 1 mps 735 mmHg 90%
03:00 +19°C° 0 mm 1 mps 735 mmHg 90%
04:00 +18°C° 0 mm 0 mps 735 mmHg 89%
05:00 +19°C° 0 mm 0 mps 735 mmHg 89%
06:00 +22°C° 0 mm 1 mps 735 mmHg 85%
07:00 +23°C° 0 mm 1 mps 735 mmHg 80%
08:00 +24°C° 0 mm 1 mps 735 mmHg 76%
09:00 +25°C° 0 mm 1 mps 735 mmHg 71%
10:00 +26°C° 0 mm 2 mps 735 mmHg 67%
11:00 +27°C° 0 mm 2 mps 735 mmHg 62%
12:00 +28°C° 0 mm 2 mps 735 mmHg 62%
13:00 +28°C° 0 mm 2 mps 734 mmHg 62%
14:00 +29°C° 0 mm 2 mps 734 mmHg 62%
15:00 +29°C° 0 mm 2 mps 734 mmHg 65%
16:00 +29°C° 0 mm 2 mps 733 mmHg 68%
17:00 +29°C° 0 mm 1 mps 733 mmHg 70%
18:00 +27°C° 0.3 mm 1 mps 733 mmHg 75%
19:00 +25°C° 0.3 mm 1 mps 733 mmHg 79%
20:00 +22°C° 0.3 mm 0 mps 733 mmHg 84%
21:00 +23°C° 1.2 mm 1 mps 733 mmHg 86%
22:00 +22°C° 1.2 mm 1 mps 733 mmHg 88%
23:00 +21°C° 1.2 mm 2 mps 733 mmHg 90%
Show more